I2HLY-4 Weather Reports


time (UTC)temp
C
wind
direction
speed
KPH
gust
KPH
rain 1hr
cm
rain 24hr
cm
rain mn
cm
humidity
%
barometer
mb
20260507203228 8 82 4.8 8.0 0.00 0.79 0.18 87 1016.4
20260507201727 8 78 4.8 8.0 0.00 0.79 0.18 87 1016.2
20260507200223 8 78 4.8 9.7 0.00 0.79 0.18 87 1016.0
20260507194721 8 63 4.8 9.7 0.00 0.79 0.18 88 1015.9
20260507193216 8 88 4.8 9.7 0.00 0.79 0.18 87 1015.7
20260507191714 8 68 3.2 8.0 0.00 0.79 0.18 87 1015.6
20260507190213 8 91 4.8 6.4 0.00 0.89 0.18 87 1015.4
20260507184727 9 73 3.2 8.0 0.00 0.89 0.18 86 1015.4
20260507183223 9 82 3.2 6.4 0.00 0.89 0.18 84 1015.2
20260507181721 10 71 4.8 9.7 0.00 0.89 0.18 83 1015.0
20260507180216 10 46 4.8 9.7 0.00 1.70 0.18 80 1014.8
20260507174712 10 28 4.8 16.1 0.00 1.70 0.18 80 1014.7
20260507173226 10 53 11.3 19.3 0.00 1.70 0.18 79 1014.6
20260507171721 10 42 8.0 25.7 0.00 1.70 0.18 80 1014.5
20260507170221 11 53 4.8 16.1 0.00 5.21 0.18 79 1014.7
20260507164716 12 39 1.6 14.5 0.00 5.21 0.18 81 1014.4
20260507163229 12 132 0.0 0.0 0.00 5.21 0.18 78 1014.5
20260507161728 12 243 1.6 6.4 0.00 5.21 0.18 81 1014.3
20260507160222 13 265 0.0 8.0 0.00 5.89 0.18 77 1014.3
20260507154718 13 172 0.0 4.8 0.00 5.89 0.18 74 1014.2
20260507153215 13 258 1.6 8.0 0.00 5.89 0.18 74 1014.0
20260507151711 13 184 0.0 0.0 0.00 5.89 0.18 71 1013.9
20260507150230 13 204 3.2 6.4 0.00 5.89 0.18 71 1014.0
20260507144723 13 198 1.6 6.4 0.00 5.89 0.18 69 1014.0
20260507141719 13 171 3.2 6.4 0.00 5.89 0.18 67 1014.1
20260507140215 14 218 1.6 11.3 0.00 5.89 0.18 68 1014.1
20260507134728 13 240 4.8 8.0 0.00 5.89 0.18 68 1014.2
20260507133229 13 235 3.2 6.4 0.00 5.89 0.18 68 1014.3
20260507131723 13 277 3.2 17.7 0.00 5.89 0.18 67 1014.3
20260507130222 13 232 4.8 11.3 0.00 5.99 0.18 64 1014.3
20260507124717 13 219 3.2 12.9 0.00 5.99 0.18 67 1014.4
20260507123229 13 256 3.2 9.7 0.00 5.99 0.18 67 1014.5
20260507121730 13 228 6.4 12.9 0.00 5.99 0.18 69 1014.4
20260507120222 13 153 3.2 11.3 0.00 5.99 0.18 69 1014.4
20260507114714 13 231 3.2 11.3 0.00 5.99 0.18 66 1014.5
20260507113211 13 235 4.8 16.1 0.00 5.99 0.18 69 1014.6
20260507111724 13 216 6.4 17.7 0.00 5.99 0.18 70 1014.6
20260507110219 13 221 4.8 19.3 0.00 5.99 0.18 72 1014.7
20260507104721 13 205 6.4 14.5 0.00 5.99 0.18 72 1014.7
20260507103218 13 124 9.7 17.7 0.00 5.99 0.18 71 1014.7
20260507101716 13 180 6.4 12.9 0.00 5.99 0.18 70 1014.7
20260507100213 12 313 6.4 12.9 0.00 6.50 0.18 75 1014.8
20260507094725 13 172 4.8 11.3 0.00 6.50 0.18 72 1014.5
20260507093224 12 229 3.2 11.3 0.00 6.50 0.18 74 1014.6
20260507091718 12 229 3.2 11.3 0.00 6.50 0.18 77 1014.5
20260507090213 11 223 4.8 12.9 0.00 6.81 0.18 83 1014.7
20260507084715 11 261 4.8 11.3 0.00 6.81 0.18 85 1014.7
20260507083212 11 189 6.4 12.9 0.00 6.81 0.18 84 1014.7
20260507081710 10 211 4.8 9.7 0.00 6.81 0.18 84 1014.6
20260507080225 10 250 6.4 8.0 0.00 6.81 0.18 92 1014.4
20260507074721 9 209 0.0 6.4 0.00 6.81 0.18 94 1014.4
20260507073217 8 302 1.6 3.2 0.00 6.81 0.18 95 1014.3
20260507071712 8 204 1.6 4.8 0.00 6.81 0.18 95 1014.3
20260507070222 8 9 0.0 4.8 0.00 6.81 0.18 95 1014.0
20260507064721 7 36 1.6 4.8 0.00 6.81 0.18 97 1013.7
20260507063218 7 307 0.0 0.0 0.00 6.81 0.18 96 1013.7
20260507061717 7 307 0.0 0.0 0.00 6.81 0.18 97 1013.7
20260507060212 6 319 0.0 0.0 0.00 7.70 0.18 97 1013.7
20260507054728 6 319 0.0 3.2 0.00 7.70 0.18 96 1013.6
20260507053229 6 36 0.0 8.0 0.00 7.70 0.18 97 1013.5
20260507051722 5 50 4.8 9.7 0.00 7.70 0.18 96 1013.2
20260507050218 5 51 3.2 6.4 0.00 8.10 0.18 96 1013.2
20260507044719 5 31 1.6 8.0 0.00 8.10 0.18 96 1013.1
20260507043215 5 93 1.6 6.4 0.00 8.10 0.18 96 1013.1
20260507041717 5 49 1.6 6.4 0.20 8.10 0.18 96 1012.8
20260507040211 5 35 4.8 9.7 0.20 8.10 0.18 96 1012.8
20260507034725 5 55 4.8 9.7 0.20 8.10 0.18 96 1012.9
20260507033224 6 52 4.8 6.4 0.20 8.10 0.18 96 1013.1
20260507031719 6 27 1.6 3.2 0.10 7.90 0.13 95 1013.2
20260507030215 6 67 3.2 8.0 0.30 7.90 0.13 96 1012.9
20260507024730 6 66 4.8 6.4 0.41 7.90 0.13 96 1013.1
20260507023226 6 12 1.6 4.8 0.51 7.90 0.13 96 1012.9
20260507021722 6 293 0.0 0.0 0.41 7.80 0.10 96 1013.1
20260507020219 6 81 0.0 0.0 0.20 8.00 0.05 96 1012.8
20260507014713 6 81 0.0 3.2 0.10 7.90 0.03 96 1012.4
20260507013214 6 81 0.0 3.2 0.00 7.80 0.00 96 1012.3
20260507011731 6 58 3.2 8.0 0.00 7.80 0.00 96 1011.9
20260507004713 6 60 0.0 6.4 0.00 8.31 0.00 96 1012.1
20260507003226 6 51 4.8 8.0 0.00 8.31 0.00 96 1012.4
20260507001728 6 65 0.0 3.2 0.00 8.31 0.00 96 1012.4
20260506234725 6 56 3.2 8.0 0.00 8.71 0.00 97 1012.4
20260506233227 6 59 4.8 6.4 0.00 8.71 0.00 97 1012.4
20260506231730 6 77 1.6 6.4 0.00 8.71 0.00 96 1012.4
20260506230211 6 70 3.2 4.8 0.00 8.71 0.00 96 1012.4
20260506224717 6 345 0.0 8.0 0.00 8.71 0.00 96 1012.3
20260506223218 6 37 6.4 9.7 0.00 8.71 0.00 96 1012.2
20260506221720 6 62 1.6 6.4 0.10 8.71 0.00 96 1012.4
20260506220225 6 53 8.0 17.7 0.10 9.19 2.21 95 1012.3
20260506214724 6 42 4.8 9.7 0.10 9.19 2.21 95 1012.2
20260506213209 6 74 4.8 8.0 0.10 9.19 2.21 95 1012.5
20260506211710 6 84 3.2 9.7 0.00 9.09 2.18 95 1012.5
20260506210211 6 50 6.4 16.1 0.00 9.91 2.18 95 1012.4
20260506204717 6 42 6.4 14.5 0.00 9.91 2.18 95 1012.4